| time (UTC) | temp F | wind direction | speed MPH | gust MPH | rain 1hr in | rain 24hr in | rain mn in | humidity % | barometer mb |
| 20260503220035 | 77 | 329 | 3.0 | 9.0 | 0.00 | 0.00 | 0.00 | 44 | 1013.3 |
| 20260503214543 | 78 | 338 | 3.0 | 9.0 | 0.00 | 0.00 | 0.00 | 43 | 1013.5 |
| 20260503213040 | 78 | 49 | 3.0 | 9.0 | 0.00 | 0.00 | 0.00 | 41 | 1013.5 |
| 20260503211548 | 78 | 58 | 2.0 | 7.0 | 0.00 | 0.00 | 0.00 | 43 | 1013.4 |
| 20260503210036 | 77 | 22 | 2.0 | 6.0 | 0.00 | 0.00 | 0.00 | 43 | 1013.6 |
| 20260503204537 | 76 | 0 | 1.0 | 9.0 | 0.00 | 0.00 | 0.00 | 43 | 1013.7 |
| 20260503203044 | 76 | 0 | 2.0 | 6.0 | 0.00 | 0.00 | 0.00 | 45 | 1013.9 |
| 20260503201542 | 76 | 230 | 2.0 | 9.0 | 0.00 | 0.00 | 0.00 | 44 | 1014.0 |
| 20260503200054 | 76 | 67 | 2.0 | 4.0 | 0.00 | 0.00 | 0.00 | 46 | 1014.2 |
| 20260503194542 | 75 | 323 | 2.0 | 7.0 | 0.00 | 0.00 | 0.00 | 44 | 1014.5 |
| 20260503193040 | 75 | 286 | 1.0 | 5.0 | 0.00 | 0.00 | 0.00 | 46 | 1014.6 |
| 20260503191542 | 74 | 352 | 1.0 | 6.0 | 0.00 | 0.00 | 0.00 | 48 | 1014.9 |
| 20260503190047 | 74 | 69 | 1.0 | 11.0 | 0.00 | 0.00 | 0.00 | 50 | 1015.2 |
| 20260503184552 | 72 | 303 | 2.0 | 8.0 | 0.00 | 0.00 | 0.00 | 52 | 1015.4 |
| 20260503183043 | 72 | 324 | 3.0 | 11.0 | 0.00 | 0.00 | 0.00 | 50 | 1015.5 |
| 20260503181559 | 71 | 300 | 2.0 | 9.0 | 0.00 | 0.00 | 0.00 | 51 | 1015.4 |
| 20260503180051 | 70 | 42 | 1.0 | 8.0 | 0.00 | 0.00 | 0.00 | 54 | 1015.7 |
| 20260503174545 | 70 | 305 | 2.0 | 9.0 | 0.00 | 0.00 | 0.00 | 54 | 1015.7 |
| 20260503173053 | 70 | 302 | 2.0 | 9.0 | 0.00 | 0.00 | 0.00 | 55 | 1015.6 |
| 20260503171540 | 70 | 31 | 1.0 | 7.0 | 0.00 | 0.00 | 0.00 | 54 | 1015.8 |
| 20260503081544 | 54 | 0 | 0.0 | 2.0 | 0.00 | 0.00 | 0.00 | 75 | 1016.2 |
| 20260503071542 | 56 | 344 | 0.0 | 1.0 | 0.00 | 0.00 | 0.00 | 72 | 1016.1 |
| 20260503054537 | 59 | 0 | 0.0 | 1.0 | 0.00 | 0.00 | 0.00 | 66 | 1016.1 |
| 20260503053036 | 59 | 0 | 0.0 | 2.0 | 0.00 | 0.00 | 0.00 | 65 | 1016.1 |
| 20260503051541 | 60 | 0 | 0.0 | 0.0 | 0.00 | 0.00 | 0.00 | 63 | 1016.1 |
| 20260503050041 | 61 | 0 | 0.0 | 2.0 | 0.00 | 0.00 | 0.00 | 62 | 1016.1 |
| 20260503044535 | 62 | 0 | 0.0 | 1.0 | 0.00 | 0.00 | 0.00 | 59 | 1015.9 |
| 20260503043040 | 64 | 0 | 0.0 | 1.0 | 0.00 | 0.00 | 0.00 | 56 | 1015.7 |
| 20260503041540 | 65 | 0 | 0.0 | 5.0 | 0.00 | 0.00 | 0.00 | 53 | 1015.4 |
| 20260503040034 | 66 | 14 | 1.0 | 7.0 | 0.00 | 0.00 | 0.00 | 53 | 1015.4 |
| 20260503034535 | 66 | 329 | 1.0 | 5.0 | 0.00 | 0.00 | 0.00 | 52 | 1015.3 |
| 20260503033038 | 67 | 302 | 1.0 | 7.0 | 0.00 | 0.00 | 0.00 | 51 | 1015.0 |
| 20260503031538 | 68 | 0 | 1.0 | 6.0 | 0.00 | 0.00 | 0.00 | 50 | 1014.7 |
| 20260503030052 | 68 | 295 | 1.0 | 5.0 | 0.00 | 0.00 | 0.00 | 50 | 1014.7 |
| 20260503024540 | 69 | 0 | 2.0 | 8.0 | 0.00 | 0.00 | 0.00 | 49 | 1014.6 |
| 20260503023035 | 69 | 0 | 2.0 | 10.0 | 0.00 | 0.00 | 0.00 | 48 | 1014.5 |
| 20260503021536 | 69 | 328 | 0.0 | 9.0 | 0.00 | 0.00 | 0.00 | 50 | 1014.6 |
| 20260503020032 | 70 | 5 | 2.0 | 9.0 | 0.00 | 0.00 | 0.00 | 50 | 1014.6 |
| 20260503014547 | 70 | 325 | 1.0 | 6.0 | 0.00 | 0.00 | 0.00 | 53 | 1014.7 |
| 20260503013038 | 70 | 303 | 2.0 | 8.0 | 0.00 | 0.00 | 0.00 | 53 | 1014.7 |
| 20260503011547 | 70 | 34 | 3.0 | 14.0 | 0.00 | 0.00 | 0.00 | 54 | 1014.9 |
| 20260503010035 | 71 | 325 | 3.0 | 9.0 | 0.00 | 0.00 | 0.00 | 54 | 1014.9 |
| 20260503004536 | 71 | 317 | 3.0 | 11.0 | 0.00 | 0.00 | 0.00 | 53 | 1015.0 |
| 20260503003050 | 72 | 20 | 1.0 | 8.0 | 0.00 | 0.00 | 0.00 | 55 | 1015.0 |
| 20260503001540 | 72 | 55 | 1.0 | 6.0 | 0.00 | 0.00 | 0.00 | 55 | 1015.1 |
| 20260503000037 | 72 | 278 | 2.0 | 8.0 | 0.00 | 0.00 | 0.00 | 55 | 1015.1 |
| 20260502234538 | 72 | 355 | 4.0 | 11.0 | 0.00 | 0.00 | 0.00 | 55 | 1015.3 |
| 20260502233035 | 72 | 5 | 5.0 | 12.0 | 0.00 | 0.00 | 0.00 | 54 | 1015.5 |
| 20260502231541 | 72 | 329 | 2.0 | 6.0 | 0.00 | 0.00 | 0.00 | 55 | 1015.6 |
| 20260502230032 | 72 | 306 | 3.0 | 12.0 | 0.00 | 0.00 | 0.00 | 57 | 1015.9 |
| 20260502224540 | 72 | 236 | 4.0 | 15.0 | 0.00 | 0.00 | 0.00 | 56 | 1016.2 |
| 20260502223037 | 71 | 328 | 1.0 | 9.0 | 0.00 | 0.00 | 0.00 | 57 | 1016.2 |
| 20260502221537 | 71 | 9 | 3.0 | 11.0 | 0.00 | 0.00 | 0.00 | 55 | 1016.4 |